This demonstration page uses our WeatherBlox Daily Observations layout. Learn more.

Left ArrowRight Arrow

Hourly Observations for March 23, 2015

Temp ( °F °C ) Dew Point ( °F °C ) Humidity (%) Winds ( mph kmh ) Pressure ( in mb ) Visibility ( mi km ) Precip ( " mm )
12:15 am 00:15 Clear 34 1 14 -10 44 44 ENE 9 15 30.24 1024 10 16 N/A
12:36 am 00:36 Clear 32 undefined 14 -10 47 47 ENE 8 13 30.24 1024 10 16 N/A
12:56 am 00:56 Clear 32 undefined 14 -10 47 47 ENE 7 11 30.24 1024 10 16 N/A
1:15 am 01:15 Clear 32 undefined 14 -10 47 47 ENE 7 11 30.24 1024 10 16 N/A
1:36 am 01:36 Clear 30 -1 14 -10 51 51 ENE 6 9 30.24 1024 10 16 N/A
1:56 am 01:56 Clear 30 -1 14 -10 51 51 ENE 6 9 30.24 1024 10 16 N/A
2:15 am 02:15 Clear 30 -1 14 -10 51 51 NE 3 6 30.24 1024 10 16 N/A
2:36 am 02:36 Clear 30 -1 16 -9 55 55 E 5 7 30.24 1024 10 16 N/A
2:56 am 02:56 Mostly Cloudy 32 undefined 16 -9 51 51 ENE 5 7 30.24 1024 10 16 N/A
3:16 am 03:16 Cloudy 32 undefined 14 -10 47 47 ENE 8 13 30.24 1024 10 16 N/A
3:36 am 03:36 Cloudy 32 undefined 14 -10 47 47 E 7 11 30.24 1024 10 16 N/A
3:55 am 03:55 Mostly Cloudy 32 undefined 16 -9 51 51 E 6 9 30.24 1024 10 16 N/A
4:16 am 04:16 Partly Cloudy 32 undefined 14 -10 47 47 E 6 9 30.24 1024 10 16 N/A
4:36 am 04:36 Partly Cloudy 32 undefined 16 -9 51 51 NE 6 9 30.24 1024 10 16 N/A
4:55 am 04:55 Partly Cloudy 32 undefined 14 -10 47 47 NE 7 11 30.24 1024 10 16 N/A
5:16 am 05:16 Partly Cloudy 32 undefined 16 -9 51 51 ENE 7 11 30.24 1024 10 16 N/A
5:36 am 05:36 Clear 32 undefined 14 -10 47 47 ENE 8 13 30.24 1024 10 16 N/A
5:55 am 05:55 Clear 32 undefined 14 -10 47 47 ENE 7 11 30.24 1024 10 16 N/A
6:16 am 06:16 Clear 32 undefined 14 -10 47 47 ENE 7 11 30.24 1024 10 16 N/A
6:35 am 06:35 Clear 32 undefined 14 -10 47 47 E 9 15 30.24 1024 10 16 N/A
6:56 am 06:56 Clear 32 undefined 14 -10 47 47 E 8 13 30.24 1024 10 16 N/A
7:16 am 07:16 Clear 32 undefined 14 -10 47 47 E 8 13 30.24 1024 10 16 N/A
7:35 am 07:35 Partly Cloudy 32 undefined 12 -11 44 44 E 10 17 30.24 1024 10 16 N/A
7:56 am 07:56 Sunny 32 undefined 10 -12 40 40 E 12 19 30.24 1024 10 16 N/A
8:16 am 08:16 Sunny 32 undefined 10 -12 40 40 E 7 11 30.24 1024 10 16 N/A
8:35 am 08:35 Partly Cloudy 32 undefined 9 -13 37 37 E 7 11 30.24 1024 10 16 N/A
8:56 am 08:56 Partly Cloudy 34 1 9 -13 35 35 E 12 19 30.24 1024 10 16 N/A
9:15 am 09:15 Partly Cloudy 34 1 5 -15 29 29 E 15 24 30.24 1024 10 16 N/A
9:36 am 09:36 Partly Cloudy 34 1 5 -15 29 29 E 14 22 30.24 1024 10 16 N/A
9:56 am 09:56 Partly Cloudy 36 2 1 -17 23 23 ESE 18 30 30.24 1024 10 16 N/A
10:15 am 10:15 Partly Cloudy 34 1 1 -17 25 25 E 16 26 30.24 1024 10 16 N/A
10:36 am 10:36 Mostly Cloudy 34 1 1 -17 25 25 E 16 26 30.24 1024 10 16 N/A
10:56 am 10:56 Mostly Cloudy 36 2 N/A 21 21 E 15 24 30.24 1024 10 16 N/A
11:15 am 11:15 Partly Cloudy 36 2 -2 -19 20 20 E 15 24 30.24 1024 10 16 N/A
11:36 am 11:36 Partly Cloudy 37 3 -2 -19 18 18 E 13 20 30.24 1024 10 16 N/A
11:55 am 11:55 Mostly Cloudy 37 3 -2 -19 18 18 E 17 28 30.24 1024 10 16 N/A
12:16 pm 12:16 Partly Cloudy 39 4 -2 -19 17 17 E 14 22 30.24 1024 10 16 N/A
12:36 pm 12:36 Partly Cloudy 37 3 -2 -19 18 18 E 13 20 30.24 1024 10 16 N/A
1:35 pm 13:35 Mostly Cloudy 37 3 1 -17 22 22 E 16 26 30.24 1024 10 16 N/A
1:56 pm 13:56 Mostly Cloudy 37 3 1 -17 22 22 E 14 22 30.24 1024 10 16 N/A
2:16 pm 14:16 Cloudy 37 3 1 -17 22 22 ENE 10 17 30.24 1024 10 16 N/A
2:35 pm 14:35 Mostly Cloudy 37 3 5 -15 26 26 NE 14 22 30.24 1024 10 16 N/A
2:56 pm 14:56 Sunny 36 2 5 -15 27 27 ENE 15 24 30.24 1024 10 16 N/A
3:16 pm 15:16 Partly Cloudy 36 2 7 -14 30 30 E 17 28 30.21 1023 7 11 N/A
3:35 pm 15:35 Mostly Cloudy 34 1 12 -11 41 41 E 15 24 30.21 1023 10 16 N/A
3:56 pm 15:56 Cloudy 32 undefined 16 -9 51 51 E 18 30 30.18 1022 3 4 N/A
4:16 pm 16:16 Partly Cloudy 32 undefined 18 -8 55 55 E 15 24 30.18 1022 10 16 N/A
4:36 pm 16:36 Mostly Cloudy 32 undefined 19 -7 60 60 NE 12 19 30.18 1022 7 11 N/A
4:56 pm 16:56 Mostly Cloudy 32 undefined 21 -6 64 64 NE 15 24 30.21 1023 5 8 N/A
5:15 pm 17:15 Mostly Cloudy 30 -1 23 -5 75 75 NE 14 22 30.21 1023 10 16 N/A
5:36 pm 17:36 Cloudy 30 -1 23 -5 75 75 ENE 13 20 30.21 1023 10 16 N/A
5:56 pm 17:56 Mostly Cloudy 30 -1 23 -5 75 75 ENE 14 22 30.21 1023 10 16 N/A
6:15 pm 18:15 Cloudy 30 -1 23 -5 75 75 ENE 9 15 30.24 1024 10 16 N/A
6:36 pm 18:36 Cloudy 30 -1 21 -6 69 69 ENE 12 19 30.24 1024 10 16 N/A
6:55 pm 18:55 Cloudy 30 -1 21 -6 69 69 ENE 10 17 30.24 1024 10 16 N/A
7:16 pm 19:16 Cloudy 30 -1 21 -6 69 69 ENE 14 22 30.24 1024 10 16 N/A
7:36 pm 19:36 Cloudy 30 -1 21 -6 69 69 ENE 10 17 30.24 1024 10 16 N/A
7:55 pm 19:55 Cloudy 30 -1 21 -6 69 69 ENE 10 17 30.24 1024 10 16 N/A
8:16 pm 20:16 Cloudy 30 -1 21 -6 69 69 ENE 13 20 30.24 1024 10 16 N/A
8:36 pm 20:36 Cloudy 30 -1 23 -5 75 75 ENE 13 20 30.24 1024 10 16 N/A
8:55 pm 20:55 Cloudy 30 -1 23 -5 75 75 ENE 10 17 30.24 1024 10 16 N/A
9:16 pm 21:16 Cloudy 30 -1 21 -6 69 69 ENE 12 19 30.24 1024 10 16 N/A
9:35 pm 21:35 Cloudy 30 -1 23 -5 75 75 ENE 13 20 30.24 1024 10 16 N/A
9:56 pm 21:56 Cloudy 30 -1 23 -5 75 75 ENE 8 13 30.24 1024 10 16 N/A
10:16 pm 22:16 Cloudy 30 -1 21 -6 69 69 ENE 10 17 30.24 1024 10 16 N/A
10:35 pm 22:35 Cloudy 30 -1 21 -6 69 69 ENE 9 15 30.24 1024 10 16 N/A
10:56 pm 22:56 Cloudy 30 -1 21 -6 69 69 ENE 12 19 30.24 1024 10 16 N/A
11:16 pm 23:16 Mostly Cloudy 30 -1 21 -6 69 69 ENE 13 20 30.24 1024 10 16 N/A
11:35 pm 23:35 Mostly Cloudy 30 -1 21 -6 69 69 ENE 12 19 30.24 1024 10 16 N/A
11:56 pm 23:56 Mostly Cloudy 30 -1 21 -6 69 69 ENE 10 17 30.24 1024 10 16 N/A

Powered by AerisWeather